Terug naar catalogus

FENGYUN 1C DEB *

ActiefPO
NORAD 47015·DEBRIS·🇨🇳 China

Gelanceerd May 10, 1999 vanaf Taiyuan Satellite Launch Center

Loading…

Volgende Passages (komende 24 uur)

TLE

VersSource: Space-Track

Epoch: Sep 12, 2026, 11:26 UTC

1 47015U 99025FAR 26255.47652690  .00003526  00000-0  28000-3 0  9990
2 47015  98.6843 344.2769 0162192 310.1257  48.5841 14.91496532684576

Volg FENGYUN 1C DEB * in realtime met AllMySat

Download on the App Store